Regional Weather Roundup
Issued by NWS

Home | Current Version | Previous Version | Graphics & Text | Print | Product List | Glossary On
Versions: 1 2 3 4 5 6 7 8 9 10 11 12 13 14 15 16 17 18 19 20 21 22 23 24 25 26 27 28 29 30 31 32 33 34 35 36 37 38 39 40 41 42 43 44 45 46 47 48 49 50
000
ASUS45 KBOI 270310
RWRID
WEATHER ROUNDUP FOR IDAHO
NATIONAL WEATHER SERVICE BOISE ID
900 PM MDT TUE AUG 26 2014

NOTE: "FAIR" INDICATES FEW OR NO CLOUDS BELOW 12000 FEET
WITH NO SIGNIFICANT WEATHER AND/OR OBSTRUCTIONS TO VISIBILITY

IDZ012-014-270400-
SOUTHWEST IDAHO


CITY           SKY/WX    TMP DP  RH WIND       PRES   REMARKS
BOISE          CLEAR     77  46  33 CALM      30.04S
CALDWELL       CLEAR     75  45  33 SW3       30.05R
MOUNTAIN HOME  CLEAR     72  46  38 SW7       30.05R
$$

IDZ016-017-270400-
SOUTHCENTRAL IDAHO


CITY           SKY/WX    TMP DP  RH WIND       PRES   REMARKS
BURLEY         PTCLDY    65  52  62 CALM      30.11R
JEROME         LGT RAIN  62  50  64 CALM      30.12R
TWIN FALLS     PTCLDY    66  49  54 SW7       30.12R
$$

IDZ019>023-270400-
SOUTHEAST IDAHO


CITY           SKY/WX    TMP DP  RH WIND       PRES   REMARKS
IDAHO FALLS    PTCLDY    65  47  52 SW5       30.15R
POCATELLO      PTCLDY    68  51  54 CALM      30.14R
REXBURG        CLEAR     65  46  50 CALM      30.16R
$$

IDZ006-010-011-018-031-032-270400-
CENTRAL IDAHO MOUNTAINS


CITY           SKY/WX    TMP DP  RH WIND       PRES   REMARKS
MCCALL         CLEAR     65  37  35 CALM      30.14R
HAILEY         PTCLDY    57  48  72 CALM      30.19R
STANLEY          N/A     51  40  65 S3        30.24R
SALMON         CLEAR     63  52  67 S5        30.09R
CHALLIS        CLEAR     64  41  42 CALM      30.14R
$$

IDZ002-004-006-007-026-270400-
NORTHERN IDAHO


CITY           SKY/WX    TMP DP  RH WIND       PRES   REMARKS
LEWISTON       CLEAR     80  38  22 CALM      29.97S
LOWELL           N/A     64  53  67 CALM      30.02R
COEUR D`ALENE  CLEAR     75  46  35 S6        30.00S
MULLAN PASS    CLEAR     57  40  52 VRB5      30.23R
$$



USA.gov is the U.S. government's official web portal to all federal, state and local government web resources and services.